sat.trackr.live / text

‹ back to catalog

ONEWEB-0380

NORAD 49306 · 2021-090AD

PAYLOAD ACTIVE UNKNOWN

§ Identity

Operator
Country
UK
Launch date
2021-10-14
Launch site
VOSTO
Launch vehicle
Mass (kg)
RCS (m²)

Purposes: comms

External: N2YO · Heavens-Above · Gunter

§ Orbital elements

Epoch: 2026-09-20T00:45:59.846688Z

Period
109.11 min
Inclination
87.9103°
Eccentricity
0.0001908
Mean motion
13.19725607 rev/d
Perigee alt
1,184.3 km
Apogee alt
1,187.2 km
Semi-major
7,563.9 km
B*
1.3494e-4
RAAN
286.0727°
Arg perigee
98.1363°
Mean anomaly
261.9986°
Rev number
23,893

§ Raw data

ONEWEB-03801 49306U 21090AD  26263.03194267  .00000067  00000+0  13494-3 0  99912 49306  87.9103 286.0727 0001908  98.1363 261.9986 13.19725607238939

JSON: /api/v1/satellites/49306 · /tle

For live sub-satellite position, see the globe view (requires WebGL).

§ Visibility from observer

Set your observer location to see the next 7 days of passes ≥ 10°. The values pass through the URL so the page stays shareable.

No JS? Fill the form by hand. The geolocation button needs JavaScript.